Newport News Williamsburg International Airport
KPHF : now visible

Airfield :











YOU CAN JOIN US ON...

 
LOGIN :

Register | Disclaimer

   EN    FR    IT 

 









Legend :    VFR   Marginal VFR   IFR   Intensive IFR   Very Intensive IFR
Visi :
Ceiling :
>= 8 km
>= 3000ft
5 to 8 km
1000 to 3000 ft
1500m to 5 km
500 to 1000 ft
800 to 1500m
200 to 500 ft
< 800m
< 200 ft
Symbols :   Thunderstorms  Fog  Heavy snow  Heavy precipitations  Wind > 20 kt






- Airport Elevation : 42 ft
- IATA code : PHF


KPHF - Newport News Williamsburg International

CURRENT METAR :
  • 041554Z 04005KT 10SM CLR 08/01 A3028 RMK AO2 SLP251 T00780006

EXPIRED METARs :
  • 041454Z 01007KT 10SM CLR 07/M01 A3029 RMK AO2 SLP257 T00721011 51006
  • 041354Z AUTO 36004KT 10SM CLR 07/M02 A3029 RMK AO2 SLP255 T00671017

TAF KPHF
Valid from the 04 at 12:00 until the 05 at 12:00 UTC


041131Z 0412/0512 02008KT P6SM SKC
FM042200 00000KT P6SM SKC
KZDC FIR / North America



MET'MAP, your aeronautical weather chart ! - Copyright ORBIFLY December 2007 - Disclaimer

ORBIFLY MET'MAP TEAM :

Programming & Development : Alexandra Zaïnal
Original concept : Baudouin d'Aumeries
Technical & hardware support : Manuel Goepfert
Assistance : Marc-Olivier Méhu




SOURCES & CREDITS :

   NOAA       Earth
Advisory